Group_ship,Cruise,JD_GMT,Date_DDMMYYYY,TIME_HH:MM:SS,Lat_dec_degree,Long_dec_degree,xCO2eq_ppm,xCO2a_ppm,Pres_Equi_hPa,Pres_sealevel_hPa,EqTemp_C,SST(TSG)_C,Sal(TSG)_Permil,Water_flow_l/min,Gasflow_IR_ml/min,Temp_IR_C,Pres_IR_hPa,Ship_heading_true_degree,Ship_speed_knot,Wind_dir_rel_degree,Wind_speed_rel_m/s,fCO2W@SST_uatm,Qcflag_water,fCO2a_uatm,Qcflag_air,dfCO2_uatm,Fluoro_ug/l,Wind_speed_true_m/s,Wind_dir_true_degree,Air_temp_C,Oxygen
AOML_Explorer,Ex0537W,255.015,12092005,0:21:40,25.113,-79.994,422.49,-9,1016.14,1013.44,29.32,29.62,36.34,1.74,72.91,31.69,1016.14,187.3,19,351,9.78,410.13,2,-9,9,-9,0.07,1.45,93.15,28.34,231.25
AOML_Explorer,Ex0537W,255.017,12092005,0:24:13,25.1,-79.996,421.34,-9,1016.21,1013.49,29.42,29.7,36.21,1.74,73.09,31.69,1016.21,187.6,19,350,9.78,408.44,2,-9,9,-9,0.07,1.63,92.82,28.37,231.74
AOML_Explorer,Ex0537W,255.019,12092005,0:26:46,25.087,-79.998,420.78,-9,1016.22,1013.49,29.23,29.73,36.32,1.76,72.84,31.7,1016.22,187.6,19.1,347,10.29,411.39,2,-9,9,-9,0.07,2.29,102.82,28.44,231.79
AOML_Explorer,Ex0537W,255.02,12092005,0:29:19,25.073,-80,418.89,-9,1016.29,1013.6,29.32,29.63,36.3,1.74,73.06,31.7,1016.29,188.2,18.9,354,9.78,406.75,2,-9,9,-9,0.09,1.06,97.88,28.43,231.83
AOML_Explorer,Ex0537W,255.022,12092005,0:31:52,25.06,-80.003,418.93,-9,1016.27,1013.65,29.3,29.5,36.34,1.75,73.68,31.7,1016.27,187.8,18.9,355,9.78,405.21,2,-9,9,-9,0.08,0.79,99.18,28.35,231.61
AOML_Explorer,Ex0537W,255.024,12092005,0:34:25,25.047,-80.005,418.85,-9,1016.39,1013.76,29.28,29.46,36.33,1.74,73.03,31.7,1016.39,188.4,18.8,0,9.78,405.04,2,-9,9,-9,0.08,0.17,161.2,28.34,231.34
AOML_Explorer,Ex0537W,255.026,12092005,0:36:58,25.034,-80.007,418.48,-9,1016.34,1013.72,29.17,29.58,36.31,1.74,73.13,31.7,1016.34,188.3,19,356,9.26,407.94,2,-9,9,-9,0.08,0.83,58.24,28.41,231.11
AOML_Explorer,Ex0537W,255.027,12092005,0:39:31,25.02,-80.009,417.87,-9,1016.39,1013.79,29.18,29.57,36.25,1.74,73.28,31.7,1016.39,188,18.9,0,9.26,407.08,2,-9,9,-9,0.08,0.46,3.51,28.41,231.04
AOML_Explorer,Ex0537W,255.029,12092005,0:42:04,25.007,-80.011,416.18,-9,1016.39,1013.8,29.12,29.68,36.25,1.75,73.13,31.61,1016.39,192.2,19,3,8.75,407.99,2,-9,9,-9,0.08,1.18,344.57,28.41,231.18
AOML_Explorer,Ex0537W,255.031,12092005,0:44:37,24.994,-80.015,417.04,-9,1016.46,1013.87,29.2,29.56,36.28,1.73,72.35,31.59,1016.46,196.4,19,2,8.75,405.9,2,-9,9,-9,0.09,1.1,356.43,28.48,231.35
AOML_Explorer,Ex0537W,255.033,12092005,0:47:10,24.981,-80.019,418.33,-9,1016.54,1013.96,29.31,29.44,36.27,1.76,73.31,31.58,1016.54,198,18.9,3,9.26,403.91,2,-9,9,-9,0.09,0.63,336.47,28.51,231.37
AOML_Explorer,Ex0537W,255.035,12092005,0:49:43,24.969,-80.024,419.64,-9,1016.52,1013.94,29.11,29.43,36.24,1.74,73.53,31.58,1016.52,198.4,18.8,2,8.75,407.94,2,-9,9,-9,0.09,0.99,358.52,28.56,231.35
AOML_Explorer,Ex0537W,255.036,12092005,0:52:16,24.956,-80.03,418.1,-9,1016.51,1013.95,29.07,29.33,36.25,1.74,72.66,31.58,1016.51,204.2,18.9,4,8.24,405.69,2,-9,9,-9,0.09,1.62,3.54,28.5,231.19
AOML_Explorer,Ex0537W,255.038,12092005,0:54:49,24.944,-80.036,417.03,-9,1016.51,1013.98,28.99,29.37,36.25,1.76,72.48,31.58,1016.51,210.6,18.8,7,7.72,406.31,2,-9,9,-9,0.08,2.18,7.23,28.47,230.95
AOML_Explorer,Ex0537W,255.04,12092005,0:57:22,24.933,-80.044,415.77,-9,1016.52,1013.95,29,29.47,36.22,1.74,72.98,31.58,1016.52,213.2,18.8,11,7.72,406.53,2,-9,9,-9,0.08,2.44,1.05,28.47,231
AOML_Explorer,Ex0537W,255.042,12092005,0:59:55,24.922,-80.053,415.6,-9,1016.52,1014.01,29.01,29.43,36.25,1.76,73.05,31.59,1016.52,216.1,18.8,9,7.72,405.48,2,-9,9,-9,0.08,2.23,10.56,28.45,230.98
AOML_Explorer,Ex0537W,255.055,12092005,1:19:07,24.841,-80.119,418.29,-9,1016.66,1014.03,29.28,29.65,36.27,1.72,71.7,31.67,1016.66,216.5,18.8,348,8.75,407.3,2,-9,9,-9,0.08,2.5,97.67,28.61,231.04
AOML_Explorer,Ex0537W,255.057,12092005,1:21:40,24.831,-80.127,419.36,-9,1016.76,1014.07,29.23,29.65,36.27,1.74,71.91,31.68,1016.76,216.6,18.8,349,9.26,409.04,2,-9,9,-9,0.08,2.23,107.99,28.78,231.13
AOML_Explorer,Ex0537W,255.058,12092005,1:24:13,24.82,-80.136,419.59,-9,1016.79,1014.11,29.21,29.44,36.3,1.77,71.89,31.68,1016.79,216.6,18.9,345,9.26,406.75,2,-9,9,-9,0.08,2.93,108.85,28.78,231.16
AOML_Explorer,Ex0537W,255.06,12092005,1:26:46,24.809,-80.145,419.82,-9,1016.75,1014.18,29.19,29.44,36.27,1.74,72.3,31.69,1016.75,216.4,18.9,344,9.26,407.16,2,-9,9,-9,0.08,3.04,108.74,28.79,230.97
AOML_Explorer,Ex0537W,255.062,12092005,1:29:19,24.798,-80.154,419.47,-9,1016.8,1014.17,29.02,29.47,36.23,1.72,72.12,31.69,1016.8,216.7,18.9,341,9.26,409.95,2,-9,9,-9,0.08,3.55,108.55,28.77,230.86
AOML_Explorer,Ex0537W,255.064,12092005,1:31:52,24.788,-80.162,418.09,-9,1016.88,1014.14,29,29.55,36.22,1.73,72.23,31.7,1016.88,216.3,18.8,339,9.26,409.93,2,-9,9,-9,0.08,3.83,108.65,28.78,230.79
AOML_Explorer,Ex0537W,255.066,12092005,1:34:25,24.777,-80.171,417.31,-9,1016.87,1014.19,29.04,29.31,36.28,1.72,72.03,31.7,1016.87,215.6,18.9,338,9.26,405.15,2,-9,9,-9,0.09,3.89,107.37,28.74,230.85
AOML_Explorer,Ex0537W,255.067,12092005,1:36:58,24.766,-80.18,417.41,-9,1016.87,1014.15,29.04,29.28,36.24,1.73,72.13,31.7,1016.87,215.8,18.9,340,9.26,404.86,2,-9,9,-9,0.08,3.58,107.72,28.71,230.82
AOML_Explorer,Ex0537W,255.069,12092005,1:39:31,24.755,-80.188,416.82,-9,1016.91,1014.24,28.91,29.32,36.23,1.72,72.27,31.7,1016.91,216.1,19,338,9.26,406.93,2,-9,9,-9,0.08,3.99,106.86,28.73,230.67
AOML_Explorer,Ex0537W,255.071,12092005,1:42:04,24.744,-80.197,415.57,-9,1016.96,1014.27,28.9,29.37,36.22,1.73,71.56,31.7,1016.96,216.1,19.1,338,9.78,406.52,2,-9,9,-9,0.09,4.07,113.41,28.73,230.72
AOML_Explorer,Ex0537W,255.073,12092005,1:44:37,24.733,-80.206,414.58,-9,1017.04,1014.24,28.95,29.3,36.22,1.73,72.48,31.7,1017.04,216.7,19,340,9.78,403.77,2,-9,9,-9,0.08,3.6,115.99,28.73,230.61
AOML_Explorer,Ex0537W,255.074,12092005,1:47:10,24.723,-80.215,414.44,-9,1017.08,1014.38,28.96,29.46,36.19,1.72,71.98,31.7,1017.08,219.5,18.9,339,10.29,405.89,2,-9,9,-9,0.09,4.12,124.68,28.77,230.55
AOML_Explorer,Ex0537W,255.076,12092005,1:49:43,24.712,-80.225,413.84,-9,1017.06,1014.42,28.98,29.6,36.16,1.74,72.07,31.7,1017.06,219.3,19,338,10.29,406.8,2,-9,9,-9,0.08,4.25,124.07,28.79,230.64
AOML_Explorer,Ex0537W,255.078,12092005,1:52:16,24.702,-80.234,413.58,-9,1017.09,1014.38,29.06,29.62,36.19,1.73,71.83,31.7,1017.09,218.8,18.9,339,10.29,405.73,2,-9,9,-9,0.09,4.04,125.18,28.79,230.68
AOML_Explorer,Ex0537W,255.08,12092005,1:54:49,24.692,-80.243,414.34,-9,1017.15,1014.47,29.17,29.58,36.2,1.75,71.5,31.7,1017.15,218.8,18.9,339,9.26,404.39,2,-9,9,-9,0.08,3.81,110.47,28.79,230.81
AOML_Explorer,Ex0537W,255.082,12092005,1:57:22,24.681,-80.253,415.42,-9,1017.18,1014.46,29.19,29.6,36.19,1.73,71.88,31.7,1017.18,219.2,18.9,341,10.29,405.28,2,-9,9,-9,0.09,3.74,127.2,28.83,230.92
AOML_Explorer,Ex0537W,255.083,12092005,1:59:55,24.671,-80.262,415.87,-9,1017.33,1014.55,29.18,29.63,36.17,1.73,71.78,31.7,1017.33,219,18.9,340,9.78,406.4,2,-9,9,-9,0.09,3.7,118.84,28.8,230.91
AOML_Explorer,Ex0537W,255.097,12092005,2:19:07,24.6,-80.342,415.19,-9,1017.45,1014.79,29.21,29.62,36.2,1.74,71.68,31.75,1017.45,230.4,19,357,8.75,405.24,2,-9,9,-9,0.08,1.34,87.74,28.87,230.58
AOML_Explorer,Ex0537W,255.098,12092005,2:21:40,24.592,-80.353,416.14,-9,1017.42,1014.84,29.21,29.66,36.21,1.73,71.62,31.75,1017.42,230,18.9,354,8.75,406.7,2,-9,9,-9,0.08,1.64,99.66,28.84,230.74
AOML_Explorer,Ex0537W,255.1,12092005,2:24:13,24.583,-80.364,416.76,-9,1017.43,1014.77,29.21,29.7,36.21,1.74,72.18,31.75,1017.43,229.8,18.8,355,8.75,407.97,2,-9,9,-9,0.07,1.43,95.87,28.88,230.74
AOML_Explorer,Ex0537W,255.102,12092005,2:26:46,24.574,-80.376,417.27,-9,1017.37,1014.76,29.24,29.6,36.23,1.73,71.88,31.76,1017.37,229.4,18.8,359,8.75,406.4,2,-9,9,-9,0.08,0.99,68.28,28.86,230.71
AOML_Explorer,Ex0537W,255.104,12092005,2:29:19,24.566,-80.387,417.99,-9,1017.28,1014.68,29.24,29.57,36.22,1.74,71.84,31.75,1017.28,229.5,18.7,355,8.75,406.6,2,-9,9,-9,0.08,1.34,95.5,28.84,230.71
AOML_Explorer,Ex0537W,255.105,12092005,2:31:52,24.557,-80.398,418.07,-9,1017.22,1014.62,29.18,29.54,36.21,1.74,71.67,31.75,1017.22,229.5,18.8,356,8.24,407.14,2,-9,9,-9,0.08,1.67,77.28,28.86,230.57
AOML_Explorer,Ex0537W,255.107,12092005,2:34:25,24.548,-80.409,417.52,-9,1017.24,1014.64,29.14,29.52,36.22,1.73,72.08,31.75,1017.24,229.4,18.8,359,8.75,407.08,2,-9,9,-9,0.08,1,69.69,28.87,230.7
AOML_Explorer,Ex0537W,255.109,12092005,2:36:58,24.54,-80.42,416.83,-9,1017.29,1014.66,29.13,29.53,36.23,1.73,72.33,31.75,1017.29,231.6,18.8,354,8.75,406.6,2,-9,9,-9,0.08,1.42,97.48,28.82,230.47
AOML_Explorer,Ex0537W,255.111,12092005,2:39:31,24.532,-80.432,416.46,-9,1017.27,1014.61,29.18,29.53,36.19,1.77,72.22,31.75,1017.27,234.1,18.8,355,8.75,405.63,2,-9,9,-9,0.07,1.35,97.84,28.84,230.53
AOML_Explorer,Ex0537W,255.113,12092005,2:42:04,24.524,-80.444,416.39,-9,1017.25,1014.59,29.09,29.56,36.2,1.74,71.64,31.74,1017.25,234.7,18.8,355,8.75,407.13,2,-9,9,-9,0.07,1.4,100.2,28.81,230.38
AOML_Explorer,Ex0537W,255.114,12092005,2:44:37,24.516,-80.456,415.6,-9,1017.22,1014.63,29.14,29.58,36.21,1.75,72.87,31.74,1017.22,234,18.8,353,9.26,405.91,2,-9,9,-9,0.09,1.39,122.84,28.79,230.48
AOML_Explorer,Ex0537W,255.116,12092005,2:47:10,24.508,-80.468,415.78,-9,1017.24,1014.63,29.16,29.45,36.22,1.74,72.46,31.74,1017.24,234.2,18.7,349,8.75,403.99,2,-9,9,-9,0.07,2.11,113.8,28.81,230.41
AOML_Explorer,Ex0537W,255.118,12092005,2:49:43,24.501,-80.48,415.87,-9,1017.27,1014.59,29.13,29.48,36.2,1.75,72.51,31.74,1017.27,233.9,18.8,353,9.26,405.03,2,-9,9,-9,0.09,1.37,122.62,28.83,230.27
AOML_Explorer,Ex0537W,255.12,12092005,2:52:16,24.493,-80.492,415.3,-9,1017.33,1014.69,29.06,29.52,36.2,1.73,72.51,31.73,1017.33,235.4,18.8,358,9.26,406.11,2,-9,9,-9,0.08,0.56,97.11,28.79,230.44
AOML_Explorer,Ex0537W,255.121,12092005,2:54:49,24.486,-80.504,414.65,-9,1017.39,1014.83,29.09,29.6,36.19,1.72,72.57,31.73,1017.39,236,18.8,1,9.26,406.23,2,-9,9,-9,0.07,0.41,62.72,28.81,230.28
AOML_Explorer,Ex0537W,255.123,12092005,2:57:22,24.478,-80.516,414.29,-9,1017.46,1014.84,29.14,29.66,36.18,1.74,72.6,31.73,1017.46,235.8,18.7,0,9.26,405.99,2,-9,9,-9,0.07,0.38,72.04,28.83,230.36
AOML_Explorer,Ex0537W,255.125,12092005,2:59:55,24.471,-80.529,414.24,-9,1017.48,1014.78,29.2,29.64,36.19,1.75,72.81,31.73,1017.48,240.5,18.8,1,9.26,404.78,2,-9,9,-9,0.07,0.41,53.46,28.84,230.46
AOML_Explorer,Ex0537W,255.138,12092005,3:19:07,24.427,-80.627,412.3,-9,1017.38,1014.79,29.29,29.73,36.16,1.69,71.84,31.76,1017.38,244.2,18.6,5,9.26,402.65,2,-9,9,-9,0.07,0.62,11.11,28.72,230.53
AOML_Explorer,Ex0537W,255.14,12092005,3:21:40,24.422,-80.64,413.22,-9,1017.44,1014.84,29.28,29.8,36.15,1.69,72.07,31.77,1017.44,244,18.7,4,8.75,404.7,2,-9,9,-9,0.08,0.96,41.46,28.73,230.62
AOML_Explorer,Ex0537W,255.142,12092005,3:24:13,24.416,-80.653,413.52,-9,1017.4,1014.82,29.32,29.81,36.16,1.67,71.7,31.77,1017.4,244,18.8,8,8.75,404.59,2,-9,9,-9,0.07,1.38,19.54,28.72,230.53
AOML_Explorer,Ex0537W,255.144,12092005,3:26:46,24.41,-80.666,413.97,-9,1017.49,1014.89,29.36,29.81,36.15,1.67,71.81,31.77,1017.49,244.4,18.9,7,9.26,404.37,2,-9,9,-9,0.07,0.95,5.86,28.68,230.57
AOML_Explorer,Ex0537W,255.145,12092005,3:29:19,24.404,-80.68,413.93,-9,1017.51,1014.91,29.37,29.77,36.17,1.65,71.44,31.76,1017.51,244,18.9,8,9.26,403.59,2,-9,9,-9,0.07,1.15,0.97,28.72,230.52
AOML_Explorer,Ex0537W,255.147,12092005,3:31:52,24.398,-80.693,413.75,-9,1017.54,1014.88,29.36,29.75,36.15,1.67,71.75,31.76,1017.54,243.8,18.9,2,8.75,403.41,2,-9,9,-9,0.08,0.98,62.37,28.66,230.44
AOML_Explorer,Ex0537W,255.149,12092005,3:34:25,24.393,-80.706,413.83,-9,1017.53,1014.9,29.33,29.79,36.14,1.67,72.13,31.76,1017.53,249.6,19,1,9.26,404.54,2,-9,9,-9,0.07,0.52,77.19,28.67,230.38
AOML_Explorer,Ex0537W,255.151,12092005,3:36:58,24.389,-80.72,413.67,-9,1017.54,1014.95,29.31,29.87,36.15,1.68,71.98,31.76,1017.54,251,18.9,7,9.26,405.71,2,-9,9,-9,0.07,0.93,13.41,28.66,230.39
AOML_Explorer,Ex0537W,255.152,12092005,3:39:31,24.384,-80.734,413.45,-9,1017.55,1014.95,29.38,29.87,36.16,1.64,72.3,31.76,1017.55,247.4,18.8,2,8.24,404.59,2,-9,9,-9,0.1,1.44,70.82,28.71,230.3
AOML_Explorer,Ex0537W,255.154,12092005,3:42:04,24.378,-80.747,413.51,-9,1017.57,1014.94,29.42,29.85,36.18,1.66,72.78,31.76,1017.57,243.3,18.8,5,8.24,403.73,2,-9,9,-9,0.07,1.55,43.42,28.68,230.32
AOML_Explorer,Ex0537W,255.156,12092005,3:44:37,24.372,-80.76,413.64,-9,1017.52,1014.92,29.43,29.84,36.17,1.66,71.98,31.76,1017.52,243.5,18.8,5,8.75,403.4,2,-9,9,-9,0.07,1.08,34.03,28.63,230.39
AOML_Explorer,Ex0537W,255.158,12092005,3:47:10,24.367,-80.773,414.08,-9,1017.48,1014.9,29.4,29.81,36.17,1.66,72.34,31.75,1017.48,243.8,18.9,0,8.75,403.93,2,-9,9,-9,0.08,1.02,80,28.68,230.23
AOML_Explorer,Ex0537W,255.16,12092005,3:49:43,24.361,-80.786,414.23,-9,1017.45,1014.85,29.39,29.62,36.22,1.65,72.31,31.75,1017.45,243.4,18.8,0,8.75,401.49,2,-9,9,-9,0.07,0.95,75.38,28.64,230.52
AOML_Explorer,Ex0537W,255.161,12092005,3:52:16,24.355,-80.799,414.66,-9,1017.48,1014.86,29.33,29.82,36.17,1.65,72.19,31.75,1017.48,243.1,18.8,356,8.75,405.67,2,-9,9,-9,0.07,1.27,103.66,28.67,230.46
AOML_Explorer,Ex0537W,255.163,12092005,3:54:49,24.349,-80.813,414.95,-9,1017.54,1014.87,29.33,29.8,36.18,1.63,72.22,31.75,1017.54,243.6,18.8,354,8.24,405.74,2,-9,9,-9,0.07,1.9,100.42,28.66,230.49
AOML_Explorer,Ex0537W,255.165,12092005,3:57:22,24.343,-80.826,415.06,-9,1017.55,1014.9,29.36,29.83,36.19,1.66,71.95,31.75,1017.55,243.6,18.8,356,8.24,405.88,2,-9,9,-9,0.08,1.67,91.11,28.67,230.59
AOML_Explorer,Ex0537W,255.167,12092005,3:59:55,24.337,-80.839,415.72,-9,1017.55,1014.92,29.37,29.88,36.2,1.66,72.37,31.74,1017.55,243,18.9,352,9.26,406.94,2,-9,9,-9,0.07,1.59,131.5,28.67,230.51
AOML_Explorer,Ex0537W,255.18,12092005,4:19:07,24.29,-80.937,416.91,-9,1017.18,1014.47,29.36,29.74,36.26,1.65,71.79,31.78,1017.18,241.6,19,347,8.75,406.13,2,-9,9,-9,0.08,2.42,119.82,28.66,230.85
AOML_Explorer,Ex0537W,255.182,12092005,4:21:40,24.283,-80.95,418.53,-9,1017.14,1014.45,29.37,29.76,36.22,1.63,71.46,31.78,1017.14,241.7,19,344,8.75,407.78,2,-9,9,-9,0.08,2.9,122.71,28.61,230.9
AOML_Explorer,Ex0537W,255.183,12092005,4:24:13,24.277,-80.963,419.16,-9,1017.14,1014.49,29.26,29.77,36.23,1.64,72.46,31.78,1017.14,241.9,19.1,352,8.75,410.26,2,-9,9,-9,0.07,1.77,110.06,28.59,230.72
AOML_Explorer,Ex0537W,255.185,12092005,4:26:46,24.271,-80.976,418.58,-9,1017.12,1014.42,29.3,29.72,36.22,1.63,72.18,31.77,1017.12,241.9,19.1,352,8.24,408.47,2,-9,9,-9,0.07,2.12,98.7,28.58,231.01
AOML_Explorer,Ex0537W,255.187,12092005,4:29:19,24.264,-80.989,418.56,-9,1017.09,1014.44,29.3,29.65,36.24,1.64,71.57,31.77,1017.09,241.7,19.1,353,9.26,407.35,2,-9,9,-9,0.07,1.41,124.11,28.6,230.97
AOML_Explorer,Ex0537W,255.189,12092005,4:31:52,24.258,-81.002,418.57,-9,1017.09,1014.47,29.29,29.65,36.21,1.62,72.02,31.77,1017.09,241.3,19.1,347,8.75,407.6,2,-9,9,-9,0.08,2.42,118.36,28.63,230.91
AOML_Explorer,Ex0537W,255.191,12092005,4:34:25,24.251,-81.016,418.1,-9,1017.08,1014.44,29.22,29.63,36.2,1.65,72.5,31.76,1017.08,241.9,19.2,343,9.26,407.86,2,-9,9,-9,0.07,3.03,131.37,28.58,230.75
AOML_Explorer,Ex0537W,255.192,12092005,4:36:58,24.245,-81.029,416.94,-9,1017.07,1014.43,29.22,29.6,36.19,1.66,72.4,31.76,1017.07,241.2,19.1,349,8.75,406.3,2,-9,9,-9,0.07,2.12,115.09,28.54,230.69
AOML_Explorer,Ex0537W,255.194,12092005,4:39:31,24.238,-81.042,416.15,-9,1017.09,1014.38,29.19,29.66,36.18,1.64,72.6,31.76,1017.09,241.1,19.1,346,8.75,406.87,2,-9,9,-9,0.07,2.52,118.84,28.55,230.59
AOML_Explorer,Ex0537W,255.196,12092005,4:42:04,24.232,-81.055,415.22,-9,1017.06,1014.4,29.21,29.61,36.18,1.67,72.45,31.76,1017.06,241.2,19.2,346,8.75,404.91,2,-9,9,-9,0.07,2.54,117.92,28.55,230.55
AOML_Explorer,Ex0537W,255.198,12092005,4:44:37,24.225,-81.068,414.93,-9,1017.01,1014.24,29.22,29.63,36.16,1.64,72.44,31.75,1017.01,241,19.3,349,9.26,404.76,2,-9,9,-9,0.07,1.93,126.85,28.61,230.61
AOML_Explorer,Ex0537W,255.199,12092005,4:47:10,24.218,-81.081,414.5,-9,1017,1014.41,29.2,29.61,36.18,1.65,72.28,31.75,1017,240.7,19.2,352,8.24,404.35,2,-9,9,-9,0.07,2.05,93.58,28.57,230.74
AOML_Explorer,Ex0537W,255.201,12092005,4:49:43,24.212,-81.094,414.14,-9,1017.01,1014.37,29.2,29.6,36.18,1.67,72.53,31.75,1017.01,240.8,19.3,350,8.75,403.89,2,-9,9,-9,0.07,1.98,109.32,28.53,230.65
AOML_Explorer,Ex0537W,255.203,12092005,4:52:16,24.205,-81.107,413.9,-9,1017.02,1014.39,29.18,29.75,36.18,1.64,72.23,31.75,1017.02,240.7,19.4,353,8.75,405.98,2,-9,9,-9,0.08,1.67,99.76,28.55,230.5
AOML_Explorer,Ex0537W,255.205,12092005,4:54:49,24.198,-81.121,413.43,-9,1017.06,1014.46,29.24,29.56,36.15,1.63,71.35,31.75,1017.06,240.7,19.4,354,8.75,402.07,2,-9,9,-9,0.08,1.54,94.77,28.58,230.49
AOML_Explorer,Ex0537W,255.207,12092005,4:57:22,24.192,-81.134,413.23,-9,1017.11,1014.39,29.22,29.63,36.17,1.65,72.74,31.75,1017.11,240.7,19.5,353,8.75,403.2,2,-9,9,-9,0.08,1.69,97.72,28.6,230.35
AOML_Explorer,Ex0537W,255.208,12092005,4:59:55,24.185,-81.147,412.71,-9,1017.13,1014.47,29.19,29.74,36.21,1.65,72.41,31.74,1017.13,240.4,19.4,349,8.24,404.75,2,-9,9,-9,0.07,2.43,99.27,28.57,230.26
AOML_Explorer,Ex0537W,255.222,12092005,5:19:07,24.137,-81.247,413.35,-9,1016.85,1014.17,29.32,29.81,36.16,1.56,72.37,31.79,1016.85,244.6,19.6,336,9.26,404.19,2,-9,9,-9,0.09,4.07,131.28,28.52,230.43
AOML_Explorer,Ex0537W,255.223,12092005,5:21:40,24.131,-81.261,414.06,-9,1016.87,1014.15,29.32,29.81,36.17,1.64,71.98,31.79,1016.87,245.1,19.7,340,9.26,404.74,2,-9,9,-9,0.07,3.47,130.75,28.51,230.33
AOML_Explorer,Ex0537W,255.225,12092005,5:24:13,24.125,-81.275,414.88,-9,1016.86,1014.17,29.34,29.78,36.19,1.64,71.28,31.78,1016.86,249.2,19.7,340,9.26,405.04,2,-9,9,-9,0.08,3.51,134.89,28.56,230.35
AOML_Explorer,Ex0537W,255.227,12092005,5:26:46,24.121,-81.289,415.33,-9,1016.89,1014.23,29.34,29.76,36.2,1.65,72.23,31.79,1016.89,249,19.6,339,8.75,405.11,2,-9,9,-9,0.08,3.71,127.72,28.56,230.33
AOML_Explorer,Ex0537W,255.229,12092005,5:29:19,24.116,-81.303,415.8,-9,1016.9,1014.23,29.35,29.71,36.21,1.64,71.68,31.79,1016.9,249.2,19.6,339,9.26,404.79,2,-9,9,-9,0.08,3.68,135.81,28.57,230.41
AOML_Explorer,Ex0537W,255.23,12092005,5:31:52,24.11,-81.318,416.2,-9,1016.87,1014.2,29.32,29.75,36.2,1.62,72.41,31.78,1016.87,246.5,19.7,347,9.26,406.13,2,-9,9,-9,0.07,2.36,128.37,28.57,230.43
AOML_Explorer,Ex0537W,255.232,12092005,5:34:25,24.105,-81.331,416.56,-9,1016.81,1014.1,29.3,29.77,36.19,1.65,72.07,31.78,1016.81,246.8,19.7,340,8.75,407.03,2,-9,9,-9,0.08,3.57,124.22,28.53,230.41
AOML_Explorer,Ex0537W,255.234,12092005,5:36:58,24.099,-81.345,416.75,-9,1016.77,1014.04,29.31,29.74,36.19,1.64,72.55,31.78,1016.77,246.4,19.7,337,9.78,406.58,2,-9,9,-9,0.07,3.96,139.87,28.59,230.47
AOML_Explorer,Ex0537W,255.236,12092005,5:39:31,24.094,-81.36,416.85,-9,1016.75,1014.04,29.29,29.79,36.18,1.63,71.82,31.78,1016.75,246.7,19.6,339,10.29,407.76,2,-9,9,-9,0.08,3.74,148.49,28.56,230.35
AOML_Explorer,Ex0537W,255.238,12092005,5:42:04,24.088,-81.374,416.62,-9,1016.75,1014.07,29.28,29.71,36.21,1.64,72.45,31.78,1016.75,246.4,19.7,339,9.78,406.52,2,-9,9,-9,0.08,3.62,140.36,28.57,230.35
AOML_Explorer,Ex0537W,255.239,12092005,5:44:37,24.083,-81.388,416.53,-9,1016.72,1013.98,29.31,29.73,36.19,1.64,72.45,31.78,1016.72,246.8,19.7,339,9.78,406.25,2,-9,9,-9,0.08,3.63,140.65,28.53,230.36
AOML_Explorer,Ex0537W,255.241,12092005,5:47:10,24.077,-81.401,416.33,-9,1016.65,1013.94,29.31,29.79,36.17,1.63,72.39,31.78,1016.65,246.6,19.7,338,10.29,406.78,2,-9,9,-9,0.08,3.92,147.77,28.5,230.29
AOML_Explorer,Ex0537W,255.243,12092005,5:49:43,24.072,-81.415,415.22,-9,1016.65,1013.94,29.31,29.66,36.21,1.62,72.26,31.78,1016.65,246.7,19.6,341,9.26,403.88,2,-9,9,-9,0.08,3.3,132.93,28.52,230.42
AOML_Explorer,Ex0537W,255.245,12092005,5:52:16,24.066,-81.429,414.44,-9,1016.66,1013.96,29.33,29.67,36.22,1.63,72.08,31.78,1016.66,246.4,19.6,339,9.26,403.08,2,-9,9,-9,0.08,3.61,132.96,28.48,230.23
AOML_Explorer,Ex0537W,255.246,12092005,5:54:49,24.061,-81.443,414.2,-9,1016.63,1013.93,29.26,29.57,36.24,1.65,72.94,31.78,1016.63,246.8,19.7,341,9.26,402.5,2,-9,9,-9,0.08,3.27,132.13,28.46,229.94
AOML_Explorer,Ex0537W,255.248,12092005,5:57:22,24.055,-81.457,414.15,-9,1016.52,1013.9,29.25,29.56,36.19,1.63,72.03,31.78,1016.52,246.8,19.6,345,8.75,402.36,2,-9,9,-9,0.08,2.77,120.77,28.44,229.57
AOML_Explorer,Ex0537W,255.25,12092005,5:59:55,24.05,-81.471,414.41,-9,1016.52,1013.83,29.14,29.7,36.18,1.64,72.19,31.78,1016.52,247.1,19.5,342,7.72,406.18,2,-9,9,-9,0.08,3.56,108.13,28.44,229.46
AOML_Explorer,Ex0537W,255.265,12092005,6:21:40,24.003,-81.59,402.19,-9,1016.31,1013.73,29.11,29.57,35.94,1.63,71.85,31.83,1016.31,246.8,19.5,354,7.21,392.88,2,-9,9,-9,0.09,2.92,79,28.41,230.03
AOML_Explorer,Ex0537W,255.267,12092005,6:24:13,23.997,-81.604,400.79,-9,1016.31,1013.73,29.07,29.82,36.08,1.66,72.08,31.83,1016.31,247.1,19.4,358,7.21,395.42,2,-9,9,-9,0.09,2.78,70.05,28.37,229.93
AOML_Explorer,Ex0537W,255.269,12092005,6:26:46,23.992,-81.618,400.12,-9,1016.35,1013.72,29.26,29.89,36.1,1.64,71.56,31.83,1016.35,246.9,19.4,352,6.69,393.09,2,-9,9,-9,0.09,3.43,80.06,28.38,229.72
AOML_Explorer,Ex0537W,255.27,12092005,6:29:19,23.986,-81.631,402.96,-9,1016.33,1013.71,29.37,29.89,36.07,1.62,71.78,31.83,1016.33,247.2,19.3,349,7.72,394.16,2,-9,9,-9,0.09,2.66,96.28,28.35,229.27
AOML_Explorer,Ex0537W,255.272,12092005,6:31:52,23.981,-81.645,404.07,-9,1016.29,1013.59,29.39,29.93,36.08,1.62,72.34,31.83,1016.29,246.9,19.2,347,7.21,395.45,2,-9,9,-9,0.08,3.16,93.73,28.39,228.97
AOML_Explorer,Ex0537W,255.274,12092005,6:34:25,23.975,-81.659,402.72,-9,1016.31,1013.66,29.44,30.03,36.06,1.63,71.69,31.84,1016.31,247.2,19.1,346,7.21,394.69,2,-9,9,-9,0.08,3.19,96.03,28.39,228.81
AOML_Explorer,Ex0537W,255.276,12092005,6:36:58,23.97,-81.672,401.84,-9,1016.33,1013.72,29.48,30.09,36.05,1.64,71.71,31.84,1016.33,247,19.1,350,7.21,394.12,2,-9,9,-9,0.08,2.88,87.84,28.43,228.49
AOML_Explorer,Ex0537W,255.277,12092005,6:39:31,23.965,-81.686,401.06,-9,1016.34,1013.73,29.54,30.14,36.11,1.63,71.97,31.84,1016.34,247.2,19,353,7.72,393.27,2,-9,9,-9,0.07,2.19,85.13,28.39,228.31
AOML_Explorer,Ex0537W,255.279,12092005,6:42:04,23.959,-81.699,400.84,-9,1016.38,1013.71,29.62,30.16,36.1,1.63,72.26,31.84,1016.38,247.1,18.9,350,6.69,392.24,2,-9,9,-9,0.07,3.25,84.28,28.41,228.09
AOML_Explorer,Ex0537W,255.281,12092005,6:44:37,23.954,-81.713,401.8,-9,1016.36,1013.76,29.66,30.19,36.1,1.63,71.93,31.85,1016.36,246.8,18.9,345,7.72,392.92,2,-9,9,-9,0.08,2.81,105.13,28.46,228.02
AOML_Explorer,Ex0537W,255.283,12092005,6:47:10,23.949,-81.726,402.3,-9,1016.29,1013.72,29.69,30.25,36.06,1.64,71.69,31.84,1016.29,247.1,19,336,7.72,393.73,2,-9,9,-9,0.08,3.92,115,28.43,228.23
AOML_Explorer,Ex0537W,255.285,12092005,6:49:43,23.944,-81.739,402.41,-9,1016.29,1013.7,29.69,30.25,36.07,1.62,71.1,31.85,1016.29,246.9,19,351,7.72,393.77,2,-9,9,-9,0.08,2.32,91.01,28.44,228.2
AOML_Explorer,Ex0537W,255.286,12092005,6:52:16,23.938,-81.753,402.3,-9,1016.25,1013.62,29.74,30.33,36.05,1.65,71.93,31.85,1016.25,247.1,19,331,7.21,394,2,-9,9,-9,0.08,4.74,111.45,28.45,228.03
AOML_Explorer,Ex0537W,255.288,12092005,6:54:49,23.933,-81.766,402.47,-9,1016.21,1013.58,29.74,30.37,36.06,1.64,72.15,31.85,1016.21,247.1,19,339,7.21,394.79,2,-9,9,-9,0.08,3.82,105.67,28.55,228.02
AOML_Explorer,Ex0537W,255.29,12092005,6:57:22,23.928,-81.78,402.83,-9,1016.12,1013.52,29.82,30.4,36.04,1.65,72.28,31.85,1016.12,247,19,351,7.21,394.3,2,-9,9,-9,0.09,2.81,86.99,28.49,228.13
AOML_Explorer,Ex0537W,255.292,12092005,6:59:55,23.922,-81.793,404.02,-9,1016.09,1013.47,29.84,30.28,36.04,1.64,71.87,31.85,1016.09,246.9,19,349,7.21,393.48,2,-9,9,-9,0.1,2.92,90.62,28.5,228.09
AOML_Explorer,Ex0537W,255.305,12092005,7:19:07,23.882,-81.894,402.82,-9,1016.11,1013.44,29.78,30.34,36.01,1.64,70.75,31.91,1016.11,247.1,18.9,345,8.75,394.14,2,-9,9,-9,0.1,2.44,126.68,28.6,228.1
AOML_Explorer,Ex0537W,255.307,12092005,7:21:40,23.877,-81.908,404.26,-9,1016.08,1013.46,29.82,30.36,36.01,1.62,70.71,31.91,1016.08,246.5,18.9,341,7.72,395.15,2,-9,9,-9,0.09,3.37,111.5,28.61,228.09
AOML_Explorer,Ex0537W,255.308,12092005,7:24:13,23.872,-81.921,405.54,-9,1016.01,1013.41,29.85,30.32,36.02,1.63,70.88,31.91,1016.01,246.7,18.9,343,8.24,395.42,2,-9,9,-9,0.08,2.94,118.38,28.61,228
AOML_Explorer,Ex0537W,255.31,12092005,7:26:46,23.866,-81.935,406.36,-9,1015.97,1013.34,29.85,30.31,36,1.61,70.59,31.92,1015.97,246.5,19,348,8.24,396,2,-9,9,-9,0.09,2.29,110.41,28.63,228.06